• In Uzbekistan
  • List of Countries
  • For 7 days
  • Water Temperature
  • Satellite Maps
  • Weather Map
  • Weather Widgets
  • user-avatar
    Login

    Hourly Weather Graz

    Today, 28 July, Friday

    Time Temperature Precipitation Wind Pressure Humidity
    00:00 +16°C° 0 mm 1 mps 721 mmHg 89%
    01:00 +15°C° 0 mm 1 mps 721 mmHg 88%
    02:00 +15°C° 0 mm 1 mps 721 mmHg 88%
    03:00 +15°C° 0 mm 1 mps 721 mmHg 87%
    04:00 +15°C° 0 mm 1 mps 721 mmHg 86%
    05:00 +16°C° 0.1 mm 1 mps 721 mmHg 84%
    06:00 +18°C° 0.1 mm 1 mps 722 mmHg 82%
    07:00 +18°C° 0.1 mm 0 mps 722 mmHg 80%
    08:00 +19°C° 0.3 mm 0 mps 722 mmHg 77%
    09:00 +20°C° 0.3 mm 0 mps 723 mmHg 74%
    10:00 +22°C° 0.3 mm 0 mps 723 mmHg 70%
    11:00 +25°C° 0.2 mm 1 mps 723 mmHg 65%
    12:00 +27°C° 0.2 mm 1 mps 723 mmHg 59%
    13:00 +28°C° 0.2 mm 1 mps 723 mmHg 54%
    14:00 +28°C° 0.4 mm 1 mps 723 mmHg 57%
    15:00 +27°C° 0.4 mm 1 mps 723 mmHg 60%
    16:00 +26°C° 0.4 mm 1 mps 723 mmHg 64%
    17:00 +25°C° 0.2 mm 1 mps 723 mmHg 69%
    18:00 +24°C° 0.2 mm 1 mps 723 mmHg 74%
    19:00 +23°C° 0.2 mm 1 mps 724 mmHg 80%
    20:00 +22°C° 0 mm 1 mps 724 mmHg 82%
    21:00 +21°C° 0 mm 1 mps 724 mmHg 85%
    22:00 +19°C° 0 mm 1 mps 725 mmHg 88%
    23:00 +19°C° 0 mm 1 mps 725 mmHg 89%

    Tomorrow, 29 July, Saturday

    Time Temperature Precipitation Wind Pressure Humidity
    00:00 +18°C° 0 mm 1 mps 725 mmHg 90%
    01:00 +18°C° 0 mm 1 mps 726 mmHg 91%
    02:00 +18°C° 0 mm 1 mps 726 mmHg 92%
    03:00 +16°C° 0 mm 1 mps 726 mmHg 92%
    04:00 +15°C° 0 mm 0 mps 726 mmHg 93%
    05:00 +16°C° 0 mm 0 mps 726 mmHg 88%
    06:00 +18°C° 0 mm 0 mps 727 mmHg 84%
    07:00 +21°C° 0 mm 1 mps 727 mmHg 80%
    08:00 +23°C° 0 mm 1 mps 727 mmHg 71%
    09:00 +25°C° 0 mm 1 mps 727 mmHg 63%
    10:00 +27°C° 0 mm 2 mps 727 mmHg 54%
    11:00 +28°C° 0 mm 2 mps 727 mmHg 51%
    12:00 +29°C° 0 mm 2 mps 727 mmHg 47%
    13:00 +31°C° 0 mm 2 mps 727 mmHg 44%
    14:00 +31°C° 0 mm 2 mps 726 mmHg 45%
    15:00 +31°C° 0 mm 2 mps 726 mmHg 46%
    16:00 +30°C° 0 mm 2 mps 726 mmHg 47%
    17:00 +29°C° 0 mm 2 mps 726 mmHg 55%
    18:00 +27°C° 0 mm 1 mps 726 mmHg 64%
    19:00 +25°C° 0 mm 1 mps 726 mmHg 72%
    20:00 +24°C° 0.2 mm 1 mps 726 mmHg 75%
    21:00 +23°C° 0.2 mm 1 mps 726 mmHg 79%
    22:00 +22°C° 0.2 mm 1 mps 726 mmHg 82%
    23:00 +21°C° 0.1 mm 1 mps 726 mmHg 83%

    Day after tomorrow, 30 July, Sunday

    Time Temperature Precipitation Wind Pressure Humidity
    00:00 +21°C° 0.1 mm 1 mps 726 mmHg 84%
    01:00 +21°C° 0.1 mm 1 mps 726 mmHg 85%
    02:00 +21°C° 0 mm 1 mps 725 mmHg 86%
    03:00 +20°C° 0 mm 1 mps 725 mmHg 87%
    04:00 +20°C° 0 mm 1 mps 725 mmHg 88%
    05:00 +21°C° 0 mm 1 mps 725 mmHg 85%
    06:00 +23°C° 0 mm 1 mps 725 mmHg 81%
    07:00 +24°C° 0 mm 1 mps 725 mmHg 77%
    08:00 +26°C° 0 mm 1 mps 725 mmHg 68%
    09:00 +28°C° 0 mm 1 mps 725 mmHg 58%
    10:00 +30°C° 0 mm 2 mps 725 mmHg 49%
    11:00 +31°C° 0 mm 2 mps 725 mmHg 46%
    12:00 +32°C° 0 mm 2 mps 725 mmHg 44%
    13:00 +34°C° 0 mm 2 mps 725 mmHg 41%
    14:00 +34°C° 0.1 mm 2 mps 725 mmHg 43%
    15:00 +32°C° 0.1 mm 2 mps 724 mmHg 45%
    16:00 +32°C° 0.1 mm 2 mps 724 mmHg 47%
    17:00 +30°C° 0.2 mm 2 mps 724 mmHg 55%
    18:00 +28°C° 0.2 mm 1 mps 724 mmHg 63%
    19:00 +26°C° 0.2 mm 1 mps 724 mmHg 71%
    20:00 +25°C° 0.3 mm 1 mps 724 mmHg 73%
    21:00 +24°C° 0.3 mm 1 mps 725 mmHg 76%
    22:00 +23°C° 0.3 mm 1 mps 725 mmHg 79%
    23:00 +23°C° 0.2 mm 1 mps 725 mmHg 80%

    31 July, Monday

    Time Temperature Precipitation Wind Pressure Humidity
    00:00 +22°C° 0.2 mm 1 mps 725 mmHg 82%
    01:00 +22°C° 0.2 mm 1 mps 725 mmHg 83%
    02:00 +21°C° 0 mm 1 mps 725 mmHg 84%
    03:00 +21°C° 0 mm 1 mps 725 mmHg 84%
    04:00 +21°C° 0 mm 1 mps 725 mmHg 84%
    05:00 +22°C° 0 mm 1 mps 725 mmHg 80%
    06:00 +23°C° 0 mm 1 mps 725 mmHg 76%
    07:00 +25°C° 0 mm 1 mps 726 mmHg 72%
    08:00 +27°C° 0 mm 1 mps 726 mmHg 64%
    09:00 +30°C° 0 mm 1 mps 726 mmHg 55%
    10:00 +32°C° 0 mm 1 mps 727 mmHg 47%
    11:00 +33°C° 0 mm 1 mps 726 mmHg 44%
    12:00 +34°C° 0 mm 1 mps 726 mmHg 41%
    13:00 +35°C° 0 mm 1 mps 726 mmHg 38%
    14:00 +34°C° 0 mm 1 mps 726 mmHg 39%
    15:00 +34°C° 0 mm 1 mps 726 mmHg 39%
    16:00 +35°C° 0 mm 2 mps 726 mmHg 40%
    17:00 +32°C° 0 mm 1 mps 726 mmHg 48%
    18:00 +30°C° 0 mm 1 mps 725 mmHg 56%
    19:00 +28°C° 0 mm 1 mps 725 mmHg 64%
    20:00 +27°C° 0.1 mm 1 mps 725 mmHg 67%
    21:00 +25°C° 0.1 mm 1 mps 726 mmHg 69%
    22:00 +24°C° 0.1 mm 1 mps 726 mmHg 71%
    23:00 +24°C° 0 mm 1 mps 726 mmHg 72%

    1 August, Tuesday

    Time Temperature Precipitation Wind Pressure Humidity
    00:00 +23°C° 0 mm 1 mps 725 mmHg 74%
    01:00 +23°C° 0 mm 1 mps 725 mmHg 75%
    02:00 +22°C° 0 mm 1 mps 725 mmHg 77%
    03:00 +22°C° 0 mm 1 mps 725 mmHg 78%
    04:00 +22°C° 0 mm 1 mps 725 mmHg 80%
    05:00 +23°C° 0 mm 1 mps 725 mmHg 77%
    06:00 +25°C° 0 mm 1 mps 726 mmHg 74%
    07:00 +26°C° 0 mm 1 mps 726 mmHg 72%
    08:00 +28°C° 0 mm 1 mps 726 mmHg 63%
    09:00 +31°C° 0 mm 1 mps 726 mmHg 54%
    10:00 +34°C° 0 mm 2 mps 727 mmHg 45%
    11:00 +35°C° 0 mm 2 mps 726 mmHg 41%
    12:00 +36°C° 0 mm 2 mps 726 mmHg 37%
    13:00 +37°C° 0 mm 2 mps 726 mmHg 33%
    14:00 +37°C° 0 mm 2 mps 726 mmHg 33%
    15:00 +37°C° 0 mm 2 mps 726 mmHg 32%
    16:00 +37°C° 0 mm 2 mps 726 mmHg 32%
    17:00 +34°C° 0 mm 1 mps 725 mmHg 41%
    18:00 +31°C° 0 mm 1 mps 725 mmHg 49%
    19:00 +29°C° 0 mm 1 mps 725 mmHg 58%
    20:00 +28°C° 0 mm 1 mps 726 mmHg 60%
    21:00 +26°C° 0 mm 1 mps 726 mmHg 61%
    22:00 +25°C° 0 mm 1 mps 726 mmHg 63%
    23:00 +24°C° 0 mm 1 mps 726 mmHg 64%

    2 August, Wednesday

    Time Temperature Precipitation Wind Pressure Humidity
    00:00 +24°C° 0 mm 1 mps 726 mmHg 65%
    01:00 +23°C° 0 mm 1 mps 726 mmHg 66%
    02:00 +23°C° 0 mm 1 mps 726 mmHg 66%
    03:00 +23°C° 0 mm 1 mps 726 mmHg 67%
    04:00 +22°C° 0 mm 1 mps 727 mmHg 68%
    05:00 +24°C° 0 mm 1 mps 727 mmHg 67%
    06:00 +25°C° 0 mm 1 mps 727 mmHg 66%
    07:00 +26°C° 0 mm 1 mps 728 mmHg 65%
    08:00 +29°C° 0 mm 1 mps 728 mmHg 57%
    09:00 +31°C° 0 mm 1 mps 728 mmHg 49%
    10:00 +33°C° 0 mm 1 mps 728 mmHg 41%
    11:00 +35°C° 0 mm 2 mps 728 mmHg 38%
    12:00 +36°C° 0 mm 2 mps 728 mmHg 35%
    13:00 +37°C° 0 mm 2 mps 728 mmHg 33%
    14:00 +37°C° 0 mm 2 mps 728 mmHg 33%
    15:00 +37°C° 0 mm 2 mps 727 mmHg 33%
    16:00 +37°C° 0 mm 2 mps 727 mmHg 33%
    17:00 +33°C° 0 mm 1 mps 727 mmHg 41%
    18:00 +31°C° 0 mm 1 mps 727 mmHg 48%
    19:00 +29°C° 0 mm 1 mps 726 mmHg 55%
    20:00 +27°C° 0.2 mm 1 mps 727 mmHg 58%
    21:00 +26°C° 0.2 mm 1 mps 727 mmHg 60%
    22:00 +25°C° 0.2 mm 1 mps 727 mmHg 62%
    23:00 +24°C° 0 mm 1 mps 727 mmHg 63%
    Show more